FW0887 Weather Reports


time (UTC)temp
C
wind
direction
speed
KPH
gust
KPH
rain 1hr
cm
rain 24hr
cm
rain mn
cm
humidity
%
barometer
mb
20260508070101 9 346 0.0 6.4 0.00 0.05 0.00 85 1018.6
20260508064550 8 322 0.0 3.2 0.00 0.05 0.00 86 1018.5
20260508063050 8 311 0.0 6.4 0.00 0.05 0.00 87 1018.4
20260508061548 8 82 0.0 3.2 0.00 0.05 0.00 87 1018.2
20260508060047 8 46 0.0 4.8 0.00 0.05 0.00 87 1018.2
20260508054547 8 54 0.0 6.4 0.00 0.05 0.00 88 1018.0
20260508053049 8 81 0.0 3.2 0.00 0.05 0.00 88 1017.7
20260508051543 8 31 0.0 4.8 0.00 0.05 0.00 88 1017.8
20260508050040 7 64 0.0 3.2 0.00 0.05 0.00 88 1017.5
20260508044555 7 47 0.0 4.8 0.00 0.05 0.00 88 1017.5
20260508043044 7 74 0.0 4.8 0.00 0.05 0.00 88 1017.5
20260508041537 7 340 0.0 3.2 0.00 0.05 0.00 88 1017.3
20260508040036 7 5 0.0 1.6 0.00 0.05 0.00 88 1017.3
20260508034543 7 5 0.0 0.0 0.00 0.05 0.00 88 1017.2
20260508033035 7 5 0.0 1.6 0.00 0.05 0.00 88 1017.1
20260508031534 8 5 0.0 3.2 0.00 0.05 0.00 88 1017.1
20260508030042 8 5 0.0 3.2 0.00 0.05 0.00 88 1017.0
20260508024538 8 5 0.0 1.6 0.00 0.05 0.00 88 1017.0
20260508023032 8 5 0.0 3.2 0.00 0.05 0.00 88 1017.0
20260508021531 8 5 0.0 1.6 0.00 0.05 0.00 88 1017.0
20260508020029 8 5 0.0 1.6 0.00 0.05 0.00 88 1017.0
20260508014529 8 5 0.0 3.2 0.00 0.08 0.00 88 1017.0
20260508013027 8 51 0.0 3.2 0.00 0.08 0.00 88 1017.1
20260508011537 8 30 0.0 1.6 0.00 0.08 0.00 88 1016.9
20260508010027 8 38 0.0 3.2 0.00 0.08 0.00 88 1016.9
20260508004529 8 38 0.0 3.2 0.00 0.08 0.00 88 1017.1
20260508003024 8 19 0.0 0.0 0.00 0.08 0.00 88 1017.2
20260508001522 8 19 0.0 0.0 0.00 0.08 0.00 87 1017.2
20260508000022 8 19 0.0 0.0 0.00 0.08 0.00 87 1017.2
20260507234522 8 19 0.0 0.0 0.00 0.08 0.00 87 1017.3
20260507233023 8 19 0.0 3.2 0.00 0.08 0.00 87 1017.5
20260507231531 8 19 0.0 1.6 0.00 0.08 0.00 87 1017.5
20260507230018 8 19 0.0 0.0 0.00 0.08 0.00 87 1017.5
20260507224520 8 19 0.0 1.6 0.00 0.08 0.00 88 1017.4
20260507223015 8 19 0.0 1.6 0.00 0.08 0.00 87 1017.3
20260507221516 8 19 0.0 4.8 0.00 0.08 0.00 88 1017.3
20260507220012 8 54 0.0 4.8 0.00 0.08 0.00 88 1017.3
20260507214511 9 55 0.0 3.2 0.00 0.13 0.08 88 1017.2
20260507213010 9 317 0.0 3.2 0.00 0.13 0.08 88 1017.0
20260507211511 9 351 0.0 6.4 0.00 0.13 0.08 88 1016.9
20260507210009 9 229 0.0 0.0 0.00 0.13 0.08 87 1017.0
20260507204507 9 228 0.0 0.0 0.00 0.25 0.08 87 1016.9
20260507203005 9 229 0.0 0.0 0.00 0.25 0.08 87 1016.7
20260507201505 9 229 0.0 0.0 0.00 0.25 0.08 87 1016.7
20260507200005 9 228 0.0 0.0 0.00 0.25 0.08 86 1016.7
20260507194502 9 229 0.0 1.6 0.00 0.71 0.08 86 1016.5
20260507193001 9 229 0.0 3.2 0.00 0.71 0.08 86 1016.3
20260507191600 9 229 0.0 4.8 0.00 0.71 0.08 85 1016.2
20260507190059 10 229 0.0 3.2 0.00 0.71 0.08 85 1016.0
20260507184558 10 261 0.0 1.6 0.00 0.71 0.08 84 1015.8
20260507183104 10 261 1.6 4.8 0.00 0.71 0.08 84 1015.7
20260507181555 10 265 0.0 4.8 0.00 0.71 0.08 84 1015.6
20260507180055 10 261 0.0 4.8 0.00 0.71 0.08 84 1015.4
20260507174605 10 273 0.0 4.8 0.00 1.07 0.08 84 1015.4
20260507173059 10 263 0.0 4.8 0.00 1.07 0.08 84 1015.2
20260507171608 10 283 1.6 4.8 0.00 1.07 0.08 84 1015.2
20260507170055 10 294 1.6 6.4 0.00 1.07 0.08 84 1015.0
20260507164602 11 270 0.0 6.4 0.00 1.07 0.08 85 1014.9
20260507163048 11 237 1.6 6.4 0.00 1.07 0.08 85 1014.8
20260507161550 11 240 1.6 6.4 0.00 1.07 0.08 87 1014.8
20260507160048 10 274 1.6 6.4 0.00 1.07 0.08 88 1014.8
20260507154546 10 250 1.6 6.4 0.00 1.07 0.08 86 1014.9
20260507153049 10 244 0.0 6.4 0.00 1.07 0.08 85 1014.9
20260507151545 10 301 1.6 6.4 0.00 1.07 0.08 85 1014.8
20260507150043 10 253 3.2 12.9 0.00 1.07 0.08 85 1014.7
20260507144541 10 247 1.6 8.0 0.00 1.07 0.08 85 1014.7
20260507143045 10 261 3.2 9.7 0.03 1.07 0.08 86 1014.5
20260507141545 10 277 4.8 14.5 0.03 1.07 0.08 86 1014.5
20260507140040 10 261 3.2 9.7 0.03 1.07 0.08 86 1014.4
20260507134547 10 290 3.2 9.7 0.03 1.07 0.08 85 1014.3
20260507133036 10 296 3.2 16.1 0.00 1.04 0.05 84 1014.3
20260507131539 11 248 3.2 6.4 0.00 1.04 0.05 86 1014.1
20260507130034 10 235 1.6 6.4 0.00 1.04 0.05 87 1014.0
20260507124533 10 273 1.6 4.8 0.00 1.04 0.05 86 1014.0
20260507123035 10 264 1.6 8.0 0.00 1.04 0.05 85 1013.9
20260507121530 11 277 3.2 12.9 0.00 1.04 0.05 86 1013.7
20260507120029 10 246 6.4 16.1 0.00 1.04 0.05 86 1013.4
20260507114531 10 235 3.2 14.5 0.00 1.04 0.05 86 1013.4
20260507113025 11 240 6.4 16.1 0.05 1.04 0.05 84 1013.0
20260507111524 11 227 4.8 12.9 0.05 1.04 0.05 87 1012.8
20260507110024 11 223 3.2 8.0 0.05 1.04 0.05 86 1012.8
20260507104525 10 232 4.8 9.7 0.05 1.04 0.05 85 1012.7
20260507103024 11 301 4.8 16.1 0.00 0.99 0.03 83 1012.7
20260507101521 12 236 6.4 14.5 0.00 0.99 0.03 85 1012.3
20260507100017 12 216 6.4 11.3 0.00 0.99 0.03 87 1012.3
20260507094626 11 215 6.4 14.5 0.00 0.99 0.03 87 1012.2
20260507093014 11 230 8.0 22.5 0.00 0.99 0.03 84 1012.2
20260507091513 12 211 8.0 16.1 0.00 0.99 0.03 82 1012.0
20260507090010 11 239 6.4 14.5 0.00 0.99 0.03 84 1011.9
20260507084506 11 208 4.8 17.7 0.00 0.99 0.03 86 1011.8
20260507083007 11 205 4.8 14.5 0.00 0.99 0.03 88 1011.7
20260507081512 10 226 4.8 11.3 0.00 0.99 0.03 88 1011.7
20260507080005 10 227 6.4 16.1 0.00 0.99 0.03 88 1011.7
20260507074515 10 217 8.0 16.1 0.00 0.99 0.03 86 1011.5
20260507073002 10 232 8.0 17.7 0.00 0.99 0.03 86 1011.3